Simultaneous Nadir Overpasses (SNOs) Predictions

Prediction of SNOs between AQUA and METOP-B Satellite Orbit:

Table of predicted SNOs for the next 14.0 days since TLE Epoch: 2/15/2019
Index Date (AQUA) Time (AQUA) Lat,Lon (AQUA) SZA (AQUA ) Date (METOP-B) Time (METOP-B) Lat,Lon (METOP-B) SZA (METOP-B ) Distance(km) Time Diff (sec)
1 02/16/2019 07:16:35 -73.84,-114.94 93.64 02/16/2019 07:16:00 -73.86,-114.94 93.62 1.59 35
2 02/16/2019 08:06:04 73.94, 52.49 86.45 02/16/2019 08:06:38 73.94, 52.59 86.44 3.07 34
3 02/19/2019 02:50:52 -73.87, -48.56 94.60 02/19/2019 02:50:24 -73.87, -48.51 94.60 1.60 28
4 02/19/2019 03:40:20 73.92, 118.97 85.44 02/19/2019 03:41:03 73.90, 118.90 85.42 2.88 43
5 02/21/2019 22:25:07 -73.85, 17.92 95.64 02/21/2019 22:24:47 -73.88, 17.92 95.61 3.09 20
6 02/21/2019 23:14:35 73.91,-174.57 84.42 02/21/2019 23:15:26 73.91,-174.67 84.42 2.97 51
7 02/24/2019 17:09:48 73.39, -82.28 82.84 02/24/2019 17:08:40 73.34, -84.25 82.90 62.80 68
8 02/24/2019 17:59:24 -73.89, 84.26 96.63 02/24/2019 17:59:11 -73.89, 84.35 96.63 2.73 13
9 02/24/2019 18:48:52 73.96,-108.24 83.43 02/24/2019 18:49:50 73.92,-108.24 83.39 3.92 58
10 02/27/2019 12:44:10 73.70, -16.52 82.13 02/27/2019 12:42:58 73.65, -17.14 82.12 20.34 72
11 02/27/2019 13:33:40 -73.89, 150.71 97.69 02/27/2019 13:33:35 -73.90, 150.78 97.68 2.15 5




NCC Satellite Simultaneous Nadir Overpasses (SNOs) Prediction Service
